Weather History for San Diego, CA

Change the Weather History Date:

Thursday, November 29, 2012

  Actual Average Record
Temperature  
Mean Temperature 65 °F 58 °F  
Max Temperature 69 °F 66 °F 86 °F (1907)
Min Temperature 60 °F 50 °F 41 °F (1919)
Degree Days  
Heating Degree Days 0 7  
Month to date heating degree days 90 119  
Since 1 July heating degree days 94 140  
Cooling Degree Days 0 0  
Month to date cooling degree days 16 11  
Year to date cooling degree days 899 718  
Growing Degree Days 14 (Base 50)    
Moisture  
Dew Point 56 °F    
Average Humidity 67    
Maximum Humidity 73    
Minimum Humidity 60    
Precipitation  
Precipitation T in 0.04 in 0.92 in (1970)
Month to date precipitation 0.18 0.97  
Year to date precipitation 4.34 8.77  
Since 1 July precipitation 0.88 1.74  
Snow  
Snow 0.00 in - - ()
Month to date snowfall 0.0  
Year to date snowfall 0.0  
Since 1 July snowfall 0.0  
Snow Depth 0.00 in    
Sea Level Pressure  
Sea Level Pressure 30.19 in    
Wind  
Wind Speed 4 mph (West)    
Max Wind Speed 12 mph    
Max Gust Speed 15 mph    
Visibility 8 miles    
Events      
T = Trace of Precipitation, MM = Missing Value Source: NWS Daily Summary

Daily Weather History Graph

Daily Weather History Graph

Search for Another Location

Airport:

Trip Planner

Search our weather history database for the weather conditions in past years. The results will help you decide how hot, cold, wet, or windy it might be!

Date:

Astronomy

Nov. 29, 2012 Rise Set
Actual Time 6:31 AM PST 4:42 PM PST
Civil Twilight 6:05 AM PST 5:09 PM PST
Nautical Twilight 5:34 AM PST 5:39 PM PST
Astronomical Twilight 5:04 AM PST 6:09 PM PST
Moon 5:49 PM PST (11/29) 7:21 AM PST (11/29)
Length of Visible Light 11h 04m
Length of Day
10h 10m
Full, 99% of the Moon is Illuminated
Nov 29
Full
Dec 6
Last Quarter
Dec 13
New
Dec 19
First Quarter
Dec 28
Full

Hourly Weather History & Observations

Time (PST) Temp. Dew Point Humidity Pressure Visibility Wind Dir Wind Speed Gust Speed Precip Events Conditions
12:51 AM 60.1 °F 51.1 °F 72% 30.22 in 10.0 mi Calm Calm - N/A   Mostly Cloudy
1:40 AM 60.8 °F 51.8 °F 72% 30.21 in 10.0 mi Calm Calm - N/A   Mostly Cloudy
1:51 AM 61.0 °F 51.1 °F 70% 30.22 in 10.0 mi ESE 3.5 mph - N/A   Mostly Cloudy
2:36 AM 60.8 °F 51.8 °F 72% 30.20 in 10.0 mi ESE 5.8 mph - N/A   Mostly Cloudy
2:51 AM 62.1 °F 50.0 °F 65% 30.20 in 10.0 mi ESE 4.6 mph - N/A   Mostly Cloudy
3:51 AM 61.0 °F 50.0 °F 67% 30.19 in 10.0 mi Calm Calm - N/A   Mostly Cloudy
4:51 AM 62.1 °F 48.9 °F 62% 30.19 in 10.0 mi SE 3.5 mph - N/A   Mostly Cloudy
5:18 AM 62.6 °F 48.2 °F 59% 30.19 in 10.0 mi Calm Calm - N/A   Mostly Cloudy
5:51 AM 62.1 °F 48.9 °F 62% 30.20 in 10.0 mi Calm Calm - N/A   Mostly Cloudy
6:51 AM 63.0 °F 48.9 °F 60% 30.22 in 10.0 mi Calm Calm - 0.00 in   Overcast
7:51 AM 63.0 °F 51.1 °F 65% 30.23 in 10.0 mi Calm Calm - N/A   Overcast
8:51 AM 64.0 °F 52.0 °F 65% 30.24 in 10.0 mi ESE 5.8 mph - N/A   Overcast
9:51 AM 66.0 °F 54.0 °F 65% 30.24 in 10.0 mi SE 6.9 mph - N/A   Overcast
10:51 AM 66.0 °F 55.9 °F 70% 30.23 in 10.0 mi South 6.9 mph - N/A   Overcast
11:51 AM 66.9 °F 57.0 °F 70% 30.20 in 10.0 mi SSW 3.5 mph - N/A   Mostly Cloudy
12:33 PM 68.0 °F 57.2 °F 68% 30.17 in 10.0 mi South 6.9 mph - N/A   Mostly Cloudy
12:51 PM 68.0 °F 57.9 °F 70% 30.18 in 10.0 mi SW 6.9 mph - N/A   Mostly Cloudy
1:51 PM 68.0 °F 57.9 °F 70% 30.16 in 10.0 mi WSW 11.5 mph - N/A   Mostly Cloudy
2:43 PM 68.0 °F 57.2 °F 68% 30.16 in 10.0 mi West 9.2 mph - N/A   Mostly Cloudy
2:51 PM 66.9 °F 57.9 °F 73% 30.16 in 10.0 mi WNW 6.9 mph - N/A   Mostly Cloudy
3:51 PM 64.9 °F 60.1 °F 84% 30.16 in 10.0 mi NNW 6.9 mph - N/A   Mostly Cloudy
4:51 PM 64.9 °F 60.1 °F 84% 30.16 in 10.0 mi North 5.8 mph - N/A   Mostly Cloudy
5:51 PM 66.0 °F 59.0 °F 78% 30.17 in 10.0 mi West 4.6 mph - N/A   Mostly Cloudy
6:51 PM 62.1 °F 60.1 °F 93% 30.17 in 8.0 mi Calm Calm - N/A   Scattered Clouds
7:51 PM 63.0 °F 60.1 °F 90% 30.18 in 10.0 mi NW 3.5 mph - N/A   Scattered Clouds
8:51 PM 62.1 °F 59.0 °F 90% 30.18 in 8.0 mi NNW 3.5 mph - N/A   Scattered Clouds
9:02 PM 62.6 °F 59.0 °F 88% 30.18 in 6.0 mi NW 8.1 mph - N/A   Mostly Cloudy
9:07 PM 60.8 °F 60.8 °F 100% 30.18 in 3.0 mi WNW 5.8 mph - N/A   Mostly Cloudy
9:18 PM 60.8 °F 60.8 °F 100% 30.18 in 1.8 mi WNW 5.8 mph - N/A   Mostly Cloudy
9:22 PM 60.8 °F 60.8 °F 100% 30.18 in 1.0 mi NW 3.5 mph - N/A   Overcast
9:44 PM 60.8 °F 60.8 °F 100% 30.18 in 1.5 mi NNW 3.5 mph - N/A   Overcast
9:51 PM 61.0 °F 60.1 °F 97% 30.18 in 1.5 mi Calm Calm - N/A   Overcast
10:01 PM 60.8 °F 59.0 °F 94% 30.19 in 2.0 mi North 5.8 mph - N/A   Overcast
10:12 PM 60.8 °F 59.0 °F 94% 30.19 in 1.8 mi Variable 3.5 mph - N/A   Overcast
10:20 PM 60.8 °F 59.0 °F 94% 30.19 in 3.0 mi Calm Calm - N/A   Overcast
10:37 PM 60.8 °F 59.0 °F 94% 30.19 in 6.0 mi Calm Calm - N/A   Overcast
10:51 PM 61.0 °F 57.9 °F 90% 30.18 in 6.0 mi East 3.5 mph - N/A   Mostly Cloudy
11:30 PM 60.8 °F 57.2 °F 88% 30.18 in 5.0 mi Calm Calm - N/A   Mostly Cloudy
11:51 PM 61.0 °F 57.9 °F 90% 30.18 in 6.0 mi WSW 3.5 mph - N/A   Mostly Cloudy